Location: Владивосток
(43.1151°N, 131.8856°E)
Time: 21:12:39
(UTC+10:00)

DX 1 - Pass Details

Date: 02 July 2022
Orbit: 617 x 629 km, 98.4° (Epoch: 10 August)

Event Time Altitude Azimuth Distance (km) Brightness Sun altitude
Rises 21:36:11 0° 26° (NNE) 2,927 ? -6.7°
Reaches altitude 10° 21:38:43 10° 39° (NE) 2,013 ? -7.1°
Maximum altitude 21:42:22 25° 95° (E) 1,263 ? -7.6°
Drops below altitude 10° 21:45:58 10° 152° (SSE) 1,994 ? -8.1°
Enters shadow 21:46:23 - 155° (SSE) 2,133 ? -8.1°
